Location: Lake Harris Campground
(43.9775°N, 74.1317°W)
Time: 10:39:24
(UTC-04:00)

ISS - All Passes

Search period start: 28 July 2016 00:00
Search period end: 07 August 2016 00:00
Orbit: 401 x 404 km, 51.6° (Epoch: 28 July)

Date Brightness Start Highest point End Pass type
(mag) Time Alt. Az. Time Alt. Az. Time Alt. Az.
28 Jul - 01:28:45 10° NW 01:31:26 23° N 01:34:07 10° ENE visible
28 Jul - 03:05:02 10° NW 03:08:18 67° NNE 03:11:32 10° ESE visible
28 Jul - 04:42:11 10° W 04:44:25 17° SW 04:46:38 10° S visible
28 Jul - 21:21:18 10° SW 21:24:30 64° SE 21:27:44 10° ENE visible
28 Jul - 22:58:14 10° W 23:01:08 29° NNW 23:04:03 10° NE visible
29 Jul - 00:35:42 10° NW 00:38:16 21° N 00:40:50 10° NE visible
29 Jul - 02:12:10 10° NW 02:15:17 41° NNE 02:18:24 10° E visible
29 Jul - 03:48:43 10° WNW 03:51:39 31° SW 03:54:34 10° SSE night (unlit)
29 Jul - 20:28:41 10° SSW 20:31:40 34° SE 20:34:38 10° ENE daylight
29 Jul - 22:04:58 10° W 22:08:04 39° NNW 22:11:10 10° NE visible
29 Jul - 23:42:33 10° NW 23:45:06 21° N 23:47:39 10° NE visible
30 Jul - 01:19:17 10° NW 01:22:13 30° NNE 01:25:09 10° E visible
30 Jul - 02:55:36 10° WNW 02:58:49 58° SW 03:02:01 10° SE night (unlit)
30 Jul - 19:36:32 10° S 19:38:53 19° SE 19:41:15 10° E daylight
30 Jul - 21:11:49 10° WSW 21:15:02 62° NNW 21:18:17 10° NE visible
30 Jul - 22:49:16 10° WNW 22:51:55 22° N 22:54:35 10° NE visible
31 Jul - 00:26:22 10° NW 00:29:05 24° NNE 00:31:49 10° ENE visible
31 Jul - 02:02:38 10° WNW 02:05:55 78° NNE 02:09:09 10° ESE visible
31 Jul - 03:40:03 10° W 03:41:57 15° SW 03:43:50 10° SSW night (unlit)
31 Jul - 20:18:51 10° SW 20:22:05 76° SSE 20:25:21 10° ENE daylight
31 Jul - 21:55:56 10° WNW 21:58:46 27° NNW 22:01:38 10° NE visible
31 Jul - 23:33:20 10° NW 23:35:56 21° N 23:38:31 10° ENE visible
01 Aug - 01:09:44 10° NW 01:12:55 47° NNE 01:16:04 10° E visible
01 Aug - 02:46:25 10° WNW 02:49:12 26° SW 02:51:59 10° SSE night (unlit)
01 Aug - 19:26:08 10° SSW 19:29:13 40° SE 19:32:18 10° ENE daylight
01 Aug - 21:02:38 10° W 21:05:41 36° NNW 21:08:44 10° NE visible
01 Aug - 22:40:12 10° NW 22:42:44 20° N 22:45:17 10° NE visible
02 Aug - 00:16:51 10° NW 00:19:50 32° NNE 00:22:49 10° E visible
02 Aug - 01:53:13 10° WNW 01:56:23 49° SW 01:59:32 10° SE night (unlit)
02 Aug - 18:33:50 10° S 18:36:25 22° SE 18:39:00 10° E daylight
02 Aug - 20:09:26 10° WSW 20:12:38 54° NNW 20:15:51 10° NE daylight
02 Aug - 21:46:56 10° WNW 21:49:34 22° N 21:52:11 10° NE visible
02 Aug - 23:23:56 10° NW 23:26:43 25° NNE 23:29:31 10° ENE visible
03 Aug - 01:00:12 10° WNW 01:03:28 90° NNW 01:06:44 10° ESE visible
03 Aug - 02:38:03 10° WSW 02:39:27 12° SW 02:40:51 10° SSW night (unlit)
03 Aug - 17:42:22 10° SSE 17:43:41 12° SE 17:45:01 10° ESE daylight
03 Aug - 19:16:23 10° WSW 19:19:38 88° SSE 19:22:55 10° ENE daylight
03 Aug - 20:53:36 10° WNW 20:56:24 25° NNW 20:59:11 10° NE visible
03 Aug - 22:30:56 10° NW 22:33:33 22° N 22:36:10 10° ENE visible
04 Aug - 00:07:17 10° NW 00:10:29 53° NNE 00:13:41 10° ESE visible
04 Aug - 01:44:07 10° W 01:46:43 22° SW 01:49:20 10° S night (unlit)
04 Aug - 18:23:36 10° SW 18:26:45 48° SE 18:29:54 10° ENE daylight
04 Aug - 20:00:17 10° W 20:03:16 32° NNW 20:06:16 10° NE daylight
04 Aug - 21:37:49 10° NW 21:40:22 20° N 21:42:55 10° NE visible
04 Aug - 23:14:23 10° NW 23:17:26 35° NNE 23:20:28 10° E visible
05 Aug - 00:50:49 10° WNW 00:53:55 41° SW 00:56:59 10° SSE visible
05 Aug - 17:31:08 10° SSW 17:33:55 26° SE 17:36:41 10° E daylight
05 Aug - 19:07:02 10° WSW 19:10:12 47° NNW 19:13:23 10° NE daylight
05 Aug - 20:44:35 10° WNW 20:47:10 21° N 20:49:45 10° NE visible
05 Aug - 22:21:29 10° NW 22:24:19 27° NNE 22:27:09 10° ENE visible
05 Aug - 23:57:45 10° WNW 00:01:01 77° SSW 00:04:16 10° SE visible
06 Aug - 01:36:28 10° WSW 01:36:55 10° SW 01:37:22 10° SW night (unlit)
06 Aug - 16:39:19 10° SSE 16:41:09 14° SE 16:43:00 10° E daylight
06 Aug - 18:13:56 10° WSW 18:17:11 79° NNW 18:20:28 10° ENE daylight
06 Aug - 19:51:16 10° WNW 19:53:59 24° NNW 19:56:44 10° NE daylight
06 Aug - 21:28:30 10° NW 21:31:09 22° N 21:33:48 10° ENE visible
06 Aug - 23:04:48 10° NW 23:08:03 61° NNE 23:11:16 10° ESE visible
